Weather History for Bilbao, Spain

Change the Weather History Date:

Monday, January 6, 2014

  Actual Average Record
Temperature  
Mean Temperature 62 °F -  
Max Temperature 65 °F 54 °F 69 °F (1999)
Min Temperature 59 °F 40 °F 35 °F (2009)
Degree Days  
Heating Degree Days 3    
Growing Degree Days 12 (Base 50)    
Moisture  
Dew Point 45 °F    
Average Humidity 50    
Maximum Humidity 63    
Minimum Humidity 34    
Precipitation  
Precipitation 0.00 in - - ()
Sea Level Pressure  
Sea Level Pressure 29.89 in    
Wind  
Wind Speed 10 mph ()    
Max Wind Speed 24 mph    
Max Gust Speed 41 mph    
Visibility 7.6 miles    
Events      
Averages and records for this station are not official NWS values.
T = Trace of Precipitation, MM = Missing Value Source: Averaged Metar Reports

Daily Weather History Graph

Daily Weather History Graph

Search for Another Location

Airport:

Trip Planner

Search our weather history database for the weather conditions in past years. The results will help you decide how hot, cold, wet, or windy it might be!

Date:

Astronomy

Jan. 06, 2014 Rise Set
Actual Time 8:43 AM CET 5:51 PM CET
Civil Twilight 8:11 AM CET 6:23 PM CET
Nautical Twilight 7:35 AM CET 6:59 PM CET
Astronomical Twilight 7:01 AM CET 7:33 PM CET
Moon 11:40 AM CET (1/6) No Moon Set
Length of Visible Light 10h 11m
Length of Day
9h 07m
Waxing Crescent, 32% of the Moon is Illuminated
Jan 6
Waxing Crescent
Jan 8
First Quarter
Jan 16
Full
Jan 24
Last Quarter
Jan 30
New

Hourly Weather History & Observations

Time (CET) Temp. Dew Point Humidity Pressure Visibility Wind Dir Wind Speed Gust Speed Precip Events Conditions
12:00 AM 62.6 °F 44.6 °F 52% 29.92 in 6.2 mi WSW 11.5 mph - N/A   Partly Cloudy
12:30 AM 62.6 °F 46.4 °F 55% 29.92 in 6.2 mi SSW 10.4 mph - N/A   Partly Cloudy
5:00 AM 62.6 °F 44.6 °F 52% 29.86 in 6.2 mi Variable 9.2 mph 24.2 mph N/A   Partly Cloudy
5:30 AM 60.8 °F 44.6 °F 55% 29.89 in 6.2 mi SW 18.4 mph 41.4 mph N/A   Partly Cloudy
6:00 AM 60.8 °F 44.6 °F 55% 29.89 in - SW 24.2 mph 39.1 mph N/A   Clear
6:30 AM 62.6 °F 42.8 °F 48% 29.89 in - SW 9.2 mph 26.5 mph N/A   Clear
7:00 AM 63 °F 45 °F 40% 29.87 in 19 mi SW 16.1 mph - -   Partly Cloudy
7:00 AM 62.6 °F 42.8 °F 48% 29.86 in 6.2 mi SW 17.3 mph 32.2 mph N/A   Partly Cloudy
7:30 AM 60.8 °F 42.8 °F 52% 29.86 in 6.2 mi SSW 17.3 mph 33.4 mph N/A   Partly Cloudy
8:00 AM 60.8 °F 42.8 °F 52% 29.86 in 6.2 mi South 11.5 mph 33.4 mph N/A   Partly Cloudy
8:30 AM 62.6 °F 42.8 °F 48% 29.86 in 6.2 mi South 8.1 mph 23.0 mph N/A   Partly Cloudy
9:00 AM 62.6 °F 41.0 °F 45% 29.86 in 6.2 mi South 13.8 mph 25.3 mph N/A   Partly Cloudy
9:30 AM 60.8 °F 41.0 °F 48% 29.89 in 6.2 mi South 10.4 mph 24.2 mph N/A   Partly Cloudy
10:00 AM 63 °F 42 °F 34% 29.89 in 19 mi South 12.7 mph - -   Partly Cloudy
10:00 AM 62.6 °F 41.0 °F 45% 29.89 in 6.2 mi SSW 11.5 mph 25.3 mph N/A   Partly Cloudy
10:30 AM 60.8 °F 41.0 °F 48% 29.89 in 6.2 mi South 16.1 mph - N/A   Partly Cloudy
11:00 AM 62.6 °F 41.0 °F 45% 29.89 in 6.2 mi Variable 8.1 mph 27.6 mph N/A   Scattered Clouds
11:30 AM 62.6 °F 42.8 °F 48% 29.89 in 6.2 mi South 9.2 mph 36.8 mph N/A   Scattered Clouds
12:00 PM 62.6 °F 42.8 °F 48% 29.86 in 6.2 mi SSW 11.5 mph 26.5 mph N/A   Scattered Clouds
12:30 PM 62.6 °F 42.8 °F 48% 29.89 in 6.2 mi SSW 17.3 mph 32.2 mph N/A   Partly Cloudy
1:00 PM 64 °F 44 °F 37% 29.87 in 19 mi South 16.1 mph - -   Partly Cloudy
1:00 PM 62.6 °F 42.8 °F 48% 29.86 in 6.2 mi SSE 15.0 mph 34.5 mph N/A   Scattered Clouds
1:30 PM 64.4 °F 44.6 °F 49% 29.86 in 6.2 mi Variable 6.9 mph 19.6 mph N/A   Scattered Clouds
2:00 PM 64.4 °F 44.6 °F 49% 29.86 in 6.2 mi South 10.4 mph - N/A   Scattered Clouds
2:30 PM 64.4 °F 44.6 °F 49% 29.86 in 6.2 mi SW 15.0 mph 26.5 mph N/A   Scattered Clouds
3:00 PM 64.4 °F 44.6 °F 49% 29.86 in 6.2 mi South 10.4 mph 24.2 mph N/A   Scattered Clouds
3:30 PM 64.4 °F 44.6 °F 49% 29.89 in 6.2 mi Variable 5.8 mph - N/A   Scattered Clouds
4:00 PM 65 °F 47 °F 41% 29.88 in 19 mi SE 6.9 mph - -   Partly Cloudy
4:00 PM 64.4 °F 46.4 °F 52% 29.89 in 6.2 mi ESE 5.8 mph - N/A   Scattered Clouds
4:30 PM 62.6 °F 46.4 °F 55% 29.89 in 6.2 mi SE 8.1 mph - N/A   Scattered Clouds
5:00 PM 64.4 °F 46.4 °F 52% 29.89 in 6.2 mi South 9.2 mph - N/A   Scattered Clouds
5:30 PM 62.6 °F 46.4 °F 55% 29.89 in 6.2 mi Variable 3.5 mph - N/A   Scattered Clouds
6:00 PM 64.4 °F 46.4 °F 52% 29.92 in 6.2 mi Variable 5.8 mph - N/A   Scattered Clouds
6:30 PM 64.4 °F 46.4 °F 52% 29.92 in 6.2 mi Variable 4.6 mph 16.1 mph N/A   Scattered Clouds
7:00 PM 64 °F 47 °F 43% 29.93 in 16 mi Calm Calm - -   Mostly Cloudy
7:00 PM 64.4 °F 46.4 °F 52% 29.92 in 6.2 mi Calm Calm - N/A   Mostly Cloudy
7:30 PM 64.4 °F 46.4 °F 52% 29.92 in 6.2 mi SSW 5.8 mph - N/A   Mostly Cloudy
8:00 PM 64.4 °F 46.4 °F 52% 29.92 in 6.2 mi SW 6.9 mph - N/A   Mostly Cloudy
8:30 PM 62.6 °F 46.4 °F 55% 29.92 in 6.2 mi South 9.2 mph - N/A   Mostly Cloudy
9:00 PM 62.6 °F 46.4 °F 55% 29.92 in 6.2 mi South 9.2 mph - N/A   Scattered Clouds
9:30 PM 62.6 °F 46.4 °F 55% 29.92 in 6.2 mi SSW 6.9 mph - N/A   Scattered Clouds
10:00 PM 62.6 °F 46.4 °F 55% 29.92 in 6.2 mi South 4.6 mph - N/A   Scattered Clouds
10:30 PM 60.8 °F 46.4 °F 59% 29.92 in 6.2 mi South 5.8 mph - N/A   Scattered Clouds
11:00 PM 59.0 °F 46.4 °F 63% 29.92 in 6.2 mi South 6.9 mph - N/A   Scattered Clouds
11:30 PM 60.8 °F 46.4 °F 59% 29.92 in 6.2 mi South 3.5 mph - N/A   Scattered Clouds